KAITUO 1B
1 40912U 15049P   18078.41518892  .00001803  00000-0  90457-4 0  9998
2 40912  97.4516  87.0200 0014531 330.6573 139.0225 15.18528020138048
TIANWANG 1C (TW-1C)
1 40926U 15051B   18078.39064815  .00010920  00000-0  21387-3 0  9999
2 40926  97.1943 121.1892 0008289 238.2144 318.5053 15.47528357139411
TIANWANG 1B (TW-1B)
1 40927U 15051C   18078.58695311  .00011385  00000-0  23215-3 0  9990
2 40927  97.2033 121.2657 0008076 254.9240 229.6383 15.46343737139367
TIANWANG 1A (TW-1A)
1 40928U 15051D   18078.58321853  .00004579  00000-0  12381-3 0  9997
2 40928  97.1956 114.3204 0010162 289.1285 192.0576 15.38168986139000
LAPAN A2
1 40931U 15052B   18078.29131392  .00000627  00000-0 -16592-5 0  9998
2 40931   5.9991  71.1184 0012896 177.4420 182.5157 14.76567683133699
LQSAT
1 40958U 15057A   18078.49992090  .00000032  00000-0  12814-4 0  9995
2 40958  97.9472 153.5833 0016667 264.9180  95.0129 14.73021006131645
CHUBUSAT 2
1 41338U 16012B   18077.61122645  .00000471  00000-0  30124-4 0  9995
2 41338  31.0027 169.0998 0013908 256.7229 103.1855 14.99937633114227
CHUBUSAT 3
1 41339U 16012C   18078.43485056  .00000398  00000-0  24289-4 0  9998
2 41339  31.0101 162.5938 0014040 272.1138  87.7904 15.00128519114334
OUFTI-1
1 41458U 16025C   18078.52024502  .00002289  00000-0  12235-3 0  9997
2 41458  98.1445 136.5471 0172018  88.2926 273.8033 15.04360750103951
E-STAR-2
1 41459U 16025D   18078.37873099  .00002837  00000-0  15114-3 0  9992
2 41459  98.1458 136.2686 0172919  89.5695 272.5371 15.04116318103925
AAUSAT 4
1 41460U 16025E   18078.50597536  .00004299  00000-0  22477-3 0  9992
2 41460  98.1414 136.7723 0164548  85.7617 276.2417 15.05444943103995
NUSAT 1
1 41557U 16033B   18078.26546015  .00002781  00000-0  10396-3 0  9998
2 41557  97.4397 162.6436 0015434 113.4218 246.8646 15.28092180100427
BEESAT 4
1 41619U 16040W   18078.12905421  .00002082  00000-0  94559-4 0  9998
2 41619  97.4254 142.4892 0011776 178.1961 181.9320 15.21837160 84391
PRATHAM
1 41783U 16059A   18078.12638627  .00000078  00000-0  24469-4 0  9997
2 41783  98.1285 141.0929 0033953  20.6929 339.5639 14.62906779 78795
ALSAT 1N
1 41789U 16059G   18078.29604320  .00000094  00000-0  26934-4 0  9991
2 41789  98.1289 142.3013 0028805  13.5430 346.6552 14.64134618 78869
NAYIF 1
1 42017U 17008BX  18077.57029119 +.00002273 +00000-0 +96417-4 0  9992
2 42017 097.4581 143.1369 0005949 353.8716 006.2447 15.24133147060265
LILACSAT-1
1 42725U 98067ME  18078.46318706  .00041385  00000-0  41378-3 0  9996
2 42725  51.6359  94.3112 0003325 266.9427  93.1188 15.65159237 46442
MAX VALIER SAT
1 42778U 17036P   18078.26038277  .00001728  00000-0  80655-4 0  9990
2 42778  97.4144 139.4255 0013423  32.0091 328.1958 15.21102426 40831
